FW8367 Weather Reports


Display with metric or nautical units.
time (UTC)temp
F
wind
direction
speed
MPH
gust
MPH
rain 1hr
in
rain 24hr
in
rain mn
in
humidity
%
barometer
mb
20260504050501 48 246 6.0 11.0 0.00 0.00 0.00 62 1005.3
20260504050006 48 252 7.0 12.0 0.00 0.00 0.00 62 1005.4
20260504045504 48 259 6.0 12.0 0.00 0.00 0.00 61 1005.3
20260504045004 48 238 6.0 12.0 0.00 0.00 0.00 61 1005.3
20260504044504 48 240 6.0 12.0 0.00 0.00 0.00 61 1005.3
20260504044005 48 232 6.0 11.0 0.00 0.00 0.00 60 1005.4
20260504043504 47 234 4.0 10.0 0.00 0.00 0.00 60 1005.4
20260504043004 47 250 5.0 9.0 0.00 0.00 0.00 60 1005.4
20260504042504 47 223 5.0 11.0 0.00 0.00 0.00 59 1005.4
20260504042004 47 226 4.0 11.0 0.00 0.00 0.00 59 1005.5
20260504041504 47 229 4.0 13.0 0.00 0.00 0.00 59 1005.5
20260504041005 47 262 5.0 13.0 0.00 0.00 0.00 59 1005.5
20260504040504 47 241 5.0 11.0 0.00 0.00 0.00 58 1005.6
20260504040008 47 45 5.0 10.0 0.00 0.00 0.00 59 1005.5
20260504035004 46 238 4.0 10.0 0.00 0.00 0.00 60 1005.5
20260504034004 47 238 4.0 10.0 0.00 0.00 0.00 60 1005.6
20260504033504 47 246 4.0 11.0 0.00 0.00 0.00 60 1005.6
20260504033005 46 240 4.0 8.0 0.00 0.00 0.00 60 1005.6
20260504032505 47 271 5.0 9.0 0.00 0.00 0.00 61 1005.6
20260504032006 47 217 6.0 9.0 0.00 0.00 0.00 61 1005.6
20260504031005 47 230 4.0 10.0 0.00 0.00 0.00 60 1005.7
20260504030504 47 214 4.0 10.0 0.00 0.00 0.00 60 1005.7
20260504025505 47 227 3.0 6.0 0.00 0.00 0.00 60 1005.8
20260504025004 47 205 3.0 6.0 0.00 0.00 0.00 60 1005.8
20260504024505 47 202 4.0 7.0 0.00 0.00 0.00 60 1005.9
20260504024004 47 229 4.0 8.0 0.00 0.00 0.00 60 1005.9
20260504023504 48 225 4.0 8.0 0.00 0.00 0.00 59 1005.9
20260504023006 48 220 4.0 7.0 0.00 0.00 0.00 58 1005.9
20260504022504 48 199 3.0 7.0 0.00 0.00 0.00 58 1005.9
20260504022004 48 213 4.0 7.0 0.00 0.00 0.00 57 1006.0
20260504021004 49 219 5.0 8.0 0.00 0.00 0.00 56 1006.0
20260504020006 49 209 5.0 10.0 0.00 0.00 0.00 55 1006.0
20260504015504 49 234 5.0 10.0 0.00 0.00 0.00 54 1006.1
20260504015004 49 213 5.0 10.0 0.00 0.00 0.00 54 1006.1
20260504014505 49 220 5.0 10.0 0.00 0.00 0.00 53 1006.2
20260504014004 49 213 5.0 9.0 0.00 0.00 0.00 53 1006.3
20260504013505 49 227 4.0 9.0 0.00 0.00 0.00 53 1006.3
20260504013004 50 193 4.0 7.0 0.00 0.00 0.00 53 1006.2
20260504012504 50 229 4.0 7.0 0.00 0.00 0.00 52 1006.3
20260504012004 50 227 5.0 9.0 0.00 0.00 0.00 51 1006.4
20260504011504 50 219 5.0 9.0 0.00 0.00 0.00 49 1006.3
20260504011004 50 186 6.0 9.0 0.00 0.00 0.00 48 1006.3
20260504010505 51 229 7.0 11.0 0.00 0.00 0.00 47 1006.3
20260504010006 51 209 7.0 11.0 0.00 0.00 0.00 47 1006.3
20260504005504 51 198 7.0 15.0 0.00 0.00 0.00 46 1006.3
20260504005004 51 267 7.0 15.0 0.00 0.00 0.00 46 1006.2
20260504004503 51 249 5.0 13.0 0.00 0.00 0.00 46 1006.2
20260504004003 51 244 5.0 11.0 0.00 0.00 0.00 46 1006.1
20260504003503 51 225 5.0 11.0 0.00 0.00 0.00 46 1006.1
20260504003004 52 227 6.0 10.0 0.00 0.00 0.00 45 1006.1
20260504002503 52 252 6.0 11.0 0.00 0.00 0.00 46 1006.1
20260504002003 52 221 6.0 11.0 0.00 0.00 0.00 46 1006.0
20260504001504 52 237 6.0 12.0 0.00 0.00 0.00 46 1006.1
20260504001003 52 246 6.0 12.0 0.00 0.00 0.00 46 1006.1
20260504000503 52 230 6.0 11.0 0.00 0.00 0.00 47 1006.2
20260504000005 52 219 6.0 10.0 0.00 0.00 0.00 46 1006.1
20260503235503 53 223 7.0 14.0 0.00 0.00 0.00 45 1006.1
20260503234503 53 235 7.0 15.0 0.00 0.00 0.00 43 1006.1
20260503234003 54 220 5.0 12.0 0.00 0.00 0.00 41 1006.1
20260503233503 54 198 4.0 8.0 0.00 0.00 0.00 39 1006.1
20260503233004 54 221 4.0 8.0 0.00 0.00 0.00 38 1006.1
20260503232503 54 241 4.0 9.0 0.00 0.00 0.00 37 1006.1
20260503232003 55 212 4.0 9.0 0.00 0.00 0.00 36 1006.0
20260503231003 55 252 5.0 9.0 0.00 0.00 0.00 36 1006.0
20260503230503 55 247 5.0 9.0 0.00 0.00 0.00 36 1006.0
20260503230006 55 256 5.0 12.0 0.00 0.00 0.00 37 1005.9
20260503225503 55 262 6.0 12.0 0.00 0.00 0.00 36 1005.9
20260503225003 55 217 6.0 10.0 0.00 0.00 0.00 36 1005.9
20260503224003 55 246 5.0 11.0 0.00 0.00 0.00 36 1005.8
20260503223503 55 252 5.0 10.0 0.00 0.00 0.00 36 1005.9
20260503223003 55 283 7.0 12.0 0.00 0.00 0.00 36 1005.8
20260503222504 55 221 8.0 15.0 0.00 0.00 0.00 36 1005.9
20260503222003 55 254 7.0 15.0 0.00 0.00 0.00 36 1006.0
20260503221504 55 240 7.0 15.0 0.00 0.00 0.00 36 1005.9
20260503221003 55 277 7.0 14.0 0.00 0.00 0.00 35 1005.9
20260503220503 56 259 7.0 12.0 0.00 0.00 0.00 36 1006.0
20260503215503 56 319 9.0 16.0 0.00 0.00 0.00 34 1005.8
20260503215003 55 275 11.0 22.0 0.00 0.00 0.00 35 1006.0
20260503214504 55 283 10.0 22.0 0.00 0.00 0.00 35 1006.0
20260503214003 56 302 8.0 16.0 0.00 0.00 0.00 35 1005.8
20260503213503 55 306 9.0 14.0 0.00 0.00 0.00 35 1005.8
20260503213004 54 239 9.0 15.0 0.00 0.00 0.00 36 1005.9
20260503212503 55 268 9.0 17.0 0.00 0.00 0.00 35 1005.9
20260503211503 55 284 9.0 18.0 0.00 0.00 0.00 36 1006.0
20260503211003 56 281 10.0 18.0 0.00 0.00 0.00 34 1005.9
20260503210503 56 252 11.0 24.0 0.00 0.00 0.00 35 1005.9
20260503210006 56 312 10.0 24.0 0.00 0.00 0.00 33 1005.8
20260503205503 56 232 9.0 16.0 0.00 0.00 0.00 34 1005.8
20260503205004 56 248 10.0 17.0 0.00 0.00 0.00 36 1005.9
20260503204503 56 263 9.0 17.0 0.00 0.00 0.00 35 1005.9
20260503203503 55 256 11.0 23.0 0.00 0.00 0.00 37 1006.1
20260503203003 55 253 10.0 18.0 0.00 0.00 0.00 37 1006.3
20260503202505 55 260 11.0 18.0 0.00 0.00 0.00 37 1006.3
20260503200503 55 249 9.0 18.0 0.00 0.00 0.00 37 1006.3
20260503200005 55 253 9.0 18.0 0.00 0.00 0.00 39 1006.4
20260503195504 54 269 10.0 16.0 0.00 0.00 0.00 39 1006.4
20260503195003 55 222 9.0 19.0 0.00 0.00 0.00 37 1006.5
20260503194503 54 336 8.0 19.0 0.00 0.00 0.00 39 1006.5
20260503194003 53 236 8.0 13.0 0.00 0.00 0.00 40 1006.6
20260503193503 54 252 9.0 20.0 0.00 0.00 0.00 39 1006.7
20260503193004 54 294 10.0 20.0 0.00 0.00 0.00 40 1006.8
20260503192503 54 259 9.0 20.0 0.00 0.00 0.00 39 1006.8
20260503192003 54 240 8.0 16.0 0.00 0.00 0.00 41 1006.9
20260503191503 54 297 7.0 13.0 0.00 0.00 0.00 41 1007.0
20260503191003 54 289 7.0 15.0 0.00 0.00 0.00 39 1007.1
20260503190503 55 311 6.0 12.0 0.00 0.00 0.00 42 1007.1
20260503190005 53 244 5.0 13.0 0.00 0.00 0.00 43 1007.1
20260503185503 53 270 6.0 12.0 0.00 0.00 0.00 42 1007.2
20260503185003 53 345 7.0 15.0 0.00 0.00 0.00 42 1007.4
20260503183504 53 259 7.0 17.0 0.00 0.00 0.00 43 1007.4
20260503183004 52 338 6.0 13.0 0.00 0.00 0.00 44 1007.4
20260503182503 51 330 8.0 14.0 0.00 0.00 0.00 45 1007.5
20260503182003 52 240 8.0 18.0 0.00 0.00 0.00 43 1007.7
20260503181504 52 215 7.0 18.0 0.00 0.00 0.00 43 1007.6
20260503181003 52 273 7.0 13.0 0.00 0.00 0.00 44 1007.6
20260503180503 53 282 9.0 14.0 0.00 0.00 0.00 43 1007.7
20260503180005 52 210 8.0 14.0 0.00 0.00 0.00 44 1007.8
20260503175503 51 267 7.0 16.0 0.00 0.00 0.00 44 1007.8
20260503175003 51 276 8.0 16.0 0.00 0.00 0.00 44 1007.7
20260503174504 51 275 7.0 14.0 0.00 0.00 0.00 44 1007.9
20260503174003 51 327 6.0 11.0 0.00 0.00 0.00 46 1008.0
20260503173504 50 281 6.0 11.0 0.00 0.00 0.00 46 1008.0
20260503173003 50 291 7.0 13.0 0.00 0.00 0.00 46 1008.1
20260503172503 51 246 8.0 13.0 0.00 0.00 0.00 47 1008.2
20260503172002 50 281 8.0 13.0 0.00 0.00 0.00 47 1008.1
20260503171504 50 297 8.0 16.0 0.00 0.00 0.00 46 1008.2
20260503171003 50 292 8.0 16.0 0.00 0.00 0.00 46 1008.4
20260503170503 50 303 7.0 14.0 0.00 0.00 0.00 45 1008.4
20260503151003 47 194 4.0 10.0 0.00 0.02 0.00 54 1009.8
20260503131001 43 230 2.0 4.0 0.00 0.02 0.00 68 1011.0
20260503130501 43 166 2.0 5.0 0.00 0.02 0.00 68 1011.0
20260503110501 38 355 0.0 0.0 0.00 0.02 0.00 88 1010.7
20260503090501 38 322 2.0 3.0 0.00 0.02 0.00 87 1010.6
20260503081502 38 348 1.0 2.0 0.00 0.03 0.00 87 1010.9
20260503072501 38 334 2.0 3.0 0.00 0.03 0.00 87 1010.9
20260503072001 38 343 2.0 3.0 0.00 0.03 0.00 87 1010.8
20260503071502 38 339 2.0 5.0 0.00 0.03 0.00 87 1010.8
20260503071001 38 326 2.0 5.0 0.00 0.03 0.00 86 1010.9
20260503070501 38 336 3.0 4.0 0.00 0.03 0.00 86 1010.8